Tracking 31027 objects as of 19-Jul-2025
HD Live streaming from Space Station
objects crossing your sky now

COSMOS 516

Track COSMOS 516 now!
10-day predictions
COSMOS 516 is classified as:


NORAD ID: 6154
Int'l Code: 1972-066A
Perigee: 922.0 km
Apogee: 1,035.8 km
Inclination: 64.8 °
Period: 104.5 minutes
Semi major axis: 7349 km
RCS: 3.1093 m2 (large)
Launch date: August 21, 1972
Source: Commonwealth of Independent States (former USSR) (CIS)
Launch site: TYURATAM MISSILE AND SPACE COMPLEX (TTMTR)
Your satellite tracking list
THORAD DELTA 1 DEB
Track 1 satellite(s)




NASA's NSSDC Master Catalog

Two Line Element Set (TLE):
1 06154U 72066A   25199.46337416 -.00000068  00000-0  19861-4 0  9991
2 06154  64.8121 331.5679 0077412 204.8964 154.8349 13.77792236661945
Source of the keplerian elements: AFSPC